Location: Unspecified
(44.4377°N, 88.0525°W)
Time: 04:43:04
(UTC-05:00)

CZ-3 Stage 3 - Visible Passes

Search period start: 24 March 2023 00:00
Search period end: 03 April 2023 00:00
Orbit: 434 x 34725 km, 31.1° (Epoch: 23 March)

Date Brightness Start Highest point End Pass type
(mag) Time Alt. Az. Time Alt. Az. Time Alt. Az.
25 Mar 8.1 04:03:29 20° SSW 04:12:31 20° SSW 07:02:14 10° SSW visible
26 Mar 8.3 00:34:14 16° SE 00:34:14 16° SE 00:59:46 10° SE visible
26 Mar 4.1 20:23:09 10° SSW 20:25:34 17° SSE 20:27:16 15° SE visible
28 Mar 8.2 03:51:09 20° SSW 03:57:03 20° SSW 06:42:09 10° SSW visible
29 Mar 6.1 00:21:55 14° SE 00:21:55 14° SE 00:38:18 10° SE visible
29 Mar 4.1 20:08:26 10° SSW 20:10:42 16° SSE 20:13:44 12° SE visible
31 Mar 8.3 03:38:53 19° SSW 03:41:30 19° SSW 06:21:13 10° SSW visible
01 Apr 5.8 00:09:41 12° SE 00:09:41 12° SE 00:17:45 10° SE visible
01 Apr 4.1 19:53:39 10° SSW 19:55:45 15° SSE 19:59:07 10° ESE visible
